Location: Menands
(42.6920°N, 73.7246°W)
Time: 17:33:59
(UTC+00:00)

SJ-7 - Pass Details

Date: 18 February 2026
Orbit: 494 x 517 km, 97.7° (Epoch: 12 March)

Event Time Altitude Azimuth Distance (km) Brightness Sun altitude
Rises 23:25:18 0° 161° (SSE) 2,584 7.6 -10.7°
Reaches altitude 10° 23:27:23 10° 160° (SSE) 1,701 6.7 -11.1°
Maximum altitude 23:31:01 72° 76° (ENE) 528 4.0 -11.7°
Drops below altitude 10° 23:34:41 10° 352° (N) 1,705 6.9 -12.4°
Sets 23:36:46 0° 350° (N) 2,591 7.8 -12.8°
